Terug naar catalogus

SL-8 R/B

ActiefLEO
NORAD 2802·ROCKET BODY·🇷🇺 Russia

Gelanceerd May 15, 1967 vanaf Plesetsk Cosmodrome

Loading…

Volgende Passages (komende 24 uur)

TLE

VersSource: Space-Track

Epoch: Sep 14, 2026, 13:25 UTC

1  2802U 67045B   26257.55945439  .00000167  00000-0  53904-4 0  9999
2  2802  74.0138 355.3277 0065063 316.5263  43.0775 14.45719343116314

Volg SL-8 R/B in realtime met AllMySat

Download on the App Store